Regional Weather Roundup
Issued by NWS

Home | Current Version | Previous Version | Text Only | Print | Product List | Glossary On
Versions: 1 2 3 4 5 6 7 8 9 10 11 12 13 14 15 16 17 18 19 20 21 22 23 24 25 26 27 28 29 30 31 32 33 34 35 36 37 38 39 40 41 42 43 44 45 46 47 48 49 50
000
ASUS45 KTFX 270610
RWRMT
MONTANA REGIONAL WEATHER ROUNDUP
NATIONAL WEATHER SERVICE GREAT FALLS MT
1200 AM MDT FRI APR 27 2018

NOTE: "FAIR" INDICATES FEW OR NO CLOUDS BELOW 12000 FEET WITH NO
SIGNIFICANT WEATHER AND/OR OBSTRUCTIONS TO VISIBILITY.

MTZ001>007-043-270700-
WEST OF THE DIVIDE

CITY           SKY/WX    TMP DP  RH WIND       PRES   REMARKS
KALISPELL      FAIR      45  34  65 W7        30.05S
MISSOULA       FAIR      50  34  54 NW3       30.05S
BUTTE          FAIR      44  29  55 S6        30.15F
MULLAN PASS    FAIR      54  24  31 SE6       30.13F
ANACONDA         N/A     45  30  57 S5        30.14S
DEER LODGE       N/A     45  32  61 SW3       30.14R
HAMILTON         N/A     50  32  50 MISG      30.07S
$$

MTZ008-052>055-270700-
SOUTHWEST MONTANA

CITY           SKY/WX    TMP DP  RH WIND       PRES   REMARKS
BOZEMAN        FAIR      42  31  64 SE9       30.12F
DILLON         FAIR      43  32  65 CALM      30.12F
ENNIS          CLEAR     39  27  60 NE5       30.18S
W YELLOWSTONE  FAIR      27  21  80 CALM      30.22S
THREE FORKS      N/A     41  33  73 CALM      30.10S
$$

MTZ009-010-012-014-046-048-049-054-270700-
EAST SLOPES AND CENTRAL MONTANA

CITY           SKY/WX    TMP DP  RH WIND       PRES   REMARKS
CUT BANK       FAIR      52  25  35 CALM      30.09S
GREAT FALLS    FAIR      52  28  39 E6        30.07F
MALMSTROM AFB  FAIR      44  31  62 SE6       30.07F
HELENA         FAIR      52  35  52 CALM      30.09S
AUGUSTA        FAIR      46  28  49 NE10      30.09F
BOWMANS CRNR   FAIR      54  23  30 W6        30.07F
CHOTEAU          N/A     50  28  43 CALM      30.10S
FAIRFIELD      FAIR      49  27  42 CALM      30.07F
POWER          FAIR      47  27  44 E3        30.07S
RAYNESFORD     FAIR      46  29  51 CALM      30.10F
ULM            FAIR      49  31  49 SE9       30.07S
WHITE SULPHUR    N/A     37  30  75 NW7       30.13S
$$

MTZ011-013-016-021-045-047-050-051-270700-
NORTH CENTRAL MONTANA

CITY           SKY/WX    TMP DP  RH WIND       PRES   REMARKS
HAVRE          FAIR      46  36  68 CALM      30.06S
LEWISTOWN      FAIR      42  30  62 SE7       30.11F
N BAR RANCH    FAIR      41  27  56 W9        30.15F
CHINOOK          N/A     48  37  66 CALM      30.06S
GEYSER         FAIR      46  29  52 W6        30.10F
GRASS RANGE    FAIR      44  31  58 W5        30.07F
STANFORD       FAIR      49  29  46 SW6       30.11F
$$

MTZ017>020-022>027-061-062-270700-
NORTHEAST MONTANA

CITY           SKY/WX    TMP DP  RH WIND       PRES   REMARKS
GLASGOW        FAIR      53  32  44 N6        30.03R
GLENDIVE       FAIR      46  33  60 W9        30.02F
JORDAN           N/A     47  36  65 W9        30.04F
MALTA          CLEAR     50  41  71 CALM      30.03S
SIDNEY         FAIR      53  31  42 NW16      29.99R
WOLF POINT     FAIR      55  32  41 VRB3      30.02R
PLENTYWOOD       N/A     48  30  49 CALM      30.01R
POPLAR           N/A     54  30  40 NE5       30.02R
$$

MTZ028>42-056>058-270700-
SOUTHCENTRAL AND SOUTHEAST MONTANA

CITY           SKY/WX    TMP DP  RH WIND       PRES   REMARKS
BAKER          FAIR      44  36  73 W12       30.05F
BILLINGS       FAIR      57  28  33 SW17      30.09F
LIVINGSTON     FAIR      42  31  64 W5        30.14S
MILES CITY     FAIR      47  40  76 W8        30.05F
BIG TIMBER     CLEAR     43  28  56 W7        30.14S
FORSYTH          N/A     52  34  50 CALM      30.06F
HARLOWTON      FAIR      43  33  67 W5        30.12F
LAUREL           N/A     50  30  46 SW13      30.10F
$$

REGIONAL REPORTS...DAKOTAS

CITY           SKY/WX    TMP DP  RH WIND       PRES   REMARKS
WILLISTON      FAIR      54  31  41 N16       29.99R
MINOT          FAIR      52  31  44 NW15      29.91R
DICKINSON      FAIR      49  31  49 W13       29.96F
BEACH          FAIR      46  28  49 W13       30.04F
CROSBY         FAIR      41  30  65 NW9       30.00R
TIOGA          FAIR      46  30  53 N9        29.99R
WATFORD CITY   FAIR      52  32  46 NW8       29.96S
BISMARCK       FAIR      50  32  50 W10       29.91F
GRAND FORKS    FAIR      45  37  73 W8        29.73F
FARGO          MOCLDY    50  33  52 S15       29.78F
BUFFALO SD       N/A     44  33  65 W9        30.00F
RAPID CITY     FAIR      43  30  60 W7        30.10S
$$

REGIONAL REPORTS...WYOMING/IDAHO/WASHINGTON

CITY           SKY/WX    TMP DP  RH WIND       PRES   REMARKS
GILLETTE       FAIR      35  30  82 S7        30.13F WCI  29
SHERIDAN       FAIR      37  32  82 S3        30.13F
BUFFALO WY     FAIR      47  30  51 NW6       30.17S
CODY           FAIR      45  27  49 S3        30.18F
YELLOWSTONE LA   N/A     26  20  77 NW3       30.30S
IDAHO FALLS    FAIR      45  32  60 N3        30.11F
SALMON         FAIR      47  31  53 CALM      30.08R
BOISE          FAIR      60  39  45 SE8       29.95F
SPOKANE        FAIR      62  33  33 NE3       29.97F
$$

REGIONAL REPORTS...ALBERTA

CITY           SKY/WX    TMP DP  RH WIND       PRES   REMARKS
CALGARY        PTCLDY    48  34  57 NW3       30.10R
CARDSTON         N/A     46  28  49 SW2         N/A
EDMONTON       CLEAR     45  27  49 SE3       30.06S
FORT MCMURRAY  CLEAR     41  21  45 SE6       30.09S
HIGH LEVEL     PTCLDY    41  30  65 CALM      29.98S
LETHBRIDGE     CLEAR     45  32  61 S3        30.07S
LLOYDMINSTER   CLEAR     41  25  52 E9        30.11R
MEDICINE HAT   CLEAR     48  34  57 CALM      30.06S
MILK RIVER       N/A     45  34  65 N2          N/A
PEACE RIVER    CLEAR     43  34  70 W5        30.02F
PINCHER CREEK  CLEAR     41  28  60 W9        30.09S
WATERTON GATE    N/A     45  27  49 SE6         N/A
$$

REGIONAL REPORTS...SASKATCHEWAN

CITY           SKY/WX    TMP DP  RH WIND       PRES   REMARKS
CORONACH         N/A     45  28  53 N5          N/A
CYPRESS HILLS    N/A     48  21  34 NE2         N/A
ESTEVAN        CLEAR     41  27  56 N6        29.98R
MOOSE JAW        N/A     37  21  52 NW3         N/A
PRINCE ALBERT  CLEAR     43  27  52 NE12      30.12R
REGINA         CLEAR     37  21  52 NW8       30.04R WCI  31
ROCKGLEN         N/A     46  28  49 N6          N/A
SASKATOON      PTCLDY    43  23  45 N12       30.10R
SWIFT CURRENT  CLEAR     46  28  49 E7        30.07R
$$



USA.gov is the U.S. government's official web portal to all federal, state and local government web resources and services.